Terminal Aerodrome Forecast
Issued by NWS Billings, MT

Home | Current Version | Previous Version | Text Only | Print | Product List | Glossary Off
Versions: 1 2 3 4 5 6 7 8 9 10 11 12 13 14 15 16 17 18 19 20 21 22 23 24 25 26 27 28 29 30

000
FTUS45 KBYZ 120537
TAFMLS
TAF
KMLS 120537Z 1206/1306 06008KT P6SM -TSRA SCT060CB BKN080
     FM120700 06008KT P6SM VCTS SCT050CB BKN080
     FM121500 35011KT P6SM SCT100=

USA.gov is the U.S. government's official web portal to all federal, state and local government web resources and services.